Zurück zum Katalog

COSMOS 1799

AktivMilitärLEO
NORAD 17143·PAYLOAD·🇷🇺 Russia

Gestartet Nov 21, 1986 von Plesetsk Cosmodrome

Loading…

Nächste Überflüge (nächste 24 Stunden)

TLE

AktuellSource: Space-Track

Epoche: Sep 14, 2026, 18:00 UTC

1 17143U 86092F   26257.75060674 -.00000004  00000-0  75730-4 0  9999
2 17143  74.0180   6.4949 0037347  23.5987 143.2431 12.55280127824496

Verfolge COSMOS 1799 in Echtzeit mit AllMySat

Download on the App Store